Weather History for Bentonville, AR

Change the Weather History Date:

Saturday, October 20, 2012

  Actual Average Record
Temperature  
Mean Temperature 58 °F -  
Max Temperature 77 °F 67 °F 87 °F (1950)
Min Temperature 39 °F 42 °F 19 °F (1989)
Degree Days  
Heating Degree Days 7    
Growing Degree Days 8 (Base 50)    
Moisture  
Dew Point 42 °F    
Average Humidity 60    
Maximum Humidity 87    
Minimum Humidity 33    
Precipitation  
Precipitation 0.00 in - - ()
Sea Level Pressure  
Sea Level Pressure 29.84 in    
Wind  
Wind Speed 3 mph (South)    
Max Wind Speed 13 mph    
Max Gust Speed 18 mph    
Visibility 10 miles    
Events      
Averages and records for this station are not official NWS values.
T = Trace of Precipitation, MM = Missing Value Source: NWS Daily Summary

Daily Weather History Graph

Daily Weather History Graph

Search for Another Location

Airport:

Trip Planner

Search our weather history database for the weather conditions in past years. The results will help you decide how hot, cold, wet, or windy it might be!

Date:

Astronomy

Oct. 20, 2012 Rise Set
Actual Time 7:28 AM CDT 6:33 PM CDT
Civil Twilight 7:02 AM CDT 6:59 PM CDT
Nautical Twilight 6:32 AM CDT 7:29 PM CDT
Astronomical Twilight 6:02 AM CDT 7:59 PM CDT
Moon 1:00 PM CDT (10/20) 11:24 PM CDT (10/20)
Length of Visible Light 11h 56m
Length of Day
11h 04m
Waxing Crescent, 34% of the Moon is Illuminated
Oct 20
Waxing Crescent
Oct 21
First Quarter
Oct 29
Full
Nov 6
Last Quarter
Nov 13
New

Hourly Weather History & Observations

Time (CDT) Temp. Windchill Dew Point Humidity Pressure Visibility Wind Dir Wind Speed Gust Speed Precip Events Conditions
12:15 AM 42.8 °F - 35.6 °F 76% 29.86 in 10.0 mi Calm Calm - N/A   Clear
12:36 AM 41.0 °F - 35.6 °F 81% 29.86 in 10.0 mi Calm Calm - N/A   Clear
12:55 AM 42.8 °F 41.1 °F 37.4 °F 81% 29.86 in 10.0 mi SSW 3.5 mph - N/A   Clear
1:15 AM 41.0 °F - 35.6 °F 81% 29.86 in 10.0 mi Calm Calm - N/A   Clear
1:55 AM 41.0 °F - 35.6 °F 81% 29.87 in 10.0 mi Calm Calm - N/A   Clear
2:15 AM 39.2 °F - 35.6 °F 87% 29.86 in 10.0 mi Calm Calm - N/A   Clear
2:55 AM 39.2 °F - 35.6 °F 87% 29.86 in 10.0 mi Calm Calm - N/A   Clear
3:15 AM 39.2 °F - 35.6 °F 87% 29.86 in 10.0 mi Calm Calm - N/A   Clear
3:35 AM 41.0 °F - 37.4 °F 87% 29.86 in 10.0 mi Calm Calm - N/A   Clear
3:55 AM 39.2 °F - 35.6 °F 87% 29.86 in 10.0 mi Calm Calm - N/A   Clear
4:15 AM 39.2 °F - 35.6 °F 87% 29.86 in 10.0 mi Calm Calm - N/A   Clear
4:35 AM 39.2 °F - 35.6 °F 87% 29.85 in 10.0 mi Calm Calm - N/A   Clear
4:56 AM 39.2 °F - 35.6 °F 87% 29.85 in 10.0 mi Calm Calm - N/A   Clear
5:15 AM 39.2 °F - 35.6 °F 87% 29.85 in 10.0 mi Calm Calm - N/A   Clear
5:35 AM 39.2 °F - 35.6 °F 87% 29.86 in 10.0 mi Calm Calm - N/A   Clear
6:15 AM 39.2 °F - 35.6 °F 87% 29.86 in 10.0 mi Calm Calm - N/A   Clear
6:35 AM 39.2 °F - 35.6 °F 87% 29.87 in 10.0 mi Calm Calm - N/A   Clear
7:15 AM 39.2 °F 37.0 °F 35.6 °F 87% 29.87 in 10.0 mi SSE 3.5 mph - N/A   Clear
7:35 AM 39.2 °F - 35.6 °F 87% 29.87 in 10.0 mi Calm Calm - N/A   Clear
7:55 AM 39.2 °F 35.9 °F 35.6 °F 87% 29.87 in 10.0 mi SE 4.6 mph - N/A   Clear
8:16 AM 42.8 °F 40.1 °F 37.4 °F 81% 29.88 in 10.0 mi SE 4.6 mph - N/A   Clear
8:35 AM 46.4 °F - 39.2 °F 76% 29.88 in 10.0 mi Calm Calm - N/A   Clear
8:55 AM 48.2 °F - 39.2 °F 71% 29.88 in 10.0 mi SSE 5.8 mph - N/A   Clear
9:15 AM 51.8 °F - 39.2 °F 62% 29.88 in 10.0 mi SSE 4.6 mph - N/A   Clear
9:35 AM 53.6 °F - 39.2 °F 58% 29.88 in 10.0 mi SSE 5.8 mph - N/A   Clear
10:35 AM 64.4 °F - 37.4 °F 37% 29.88 in 10.0 mi SSW 6.9 mph - N/A   Clear
10:55 AM 66.2 °F - 39.2 °F 37% 29.87 in 10.0 mi South 9.2 mph - N/A   Clear
11:15 AM 68.0 °F - 39.2 °F 35% 29.87 in 10.0 mi SSW 9.2 mph - N/A   Clear
11:35 AM 69.8 °F - 39.2 °F 33% 29.87 in 10.0 mi SW 8.1 mph - N/A   Clear
11:55 AM 71.6 °F - 41.0 °F 33% 29.86 in 10.0 mi SSW 5.8 mph - N/A   Clear
12:15 PM 71.6 °F - 42.8 °F 35% 29.86 in 10.0 mi SSW 9.2 mph - N/A   Clear
12:35 PM 73.4 °F - 42.8 °F 33% 29.86 in 10.0 mi SSW 11.5 mph 16.1 mph N/A   Clear
12:55 PM 73.4 °F - 42.8 °F 33% 29.85 in 10.0 mi SSW 11.5 mph 16.1 mph N/A   Clear
1:15 PM 73.4 °F - 44.6 °F 36% 29.84 in 10.0 mi SW 10.4 mph 17.3 mph N/A   Clear
1:35 PM 73.4 °F - 44.6 °F 36% 29.83 in 10.0 mi SW 12.7 mph 18.4 mph N/A   Clear
1:55 PM 75.2 °F - 44.6 °F 34% 29.82 in 10.0 mi SSW 10.4 mph - N/A   Clear
2:35 PM 75.2 °F - 46.4 °F 36% 29.80 in 10.0 mi SW 11.5 mph - N/A   Clear
2:55 PM 77.0 °F - 46.4 °F 34% 29.80 in 10.0 mi SSW 6.9 mph - N/A   Clear
3:35 PM 77.0 °F - 48.2 °F 36% 29.79 in 10.0 mi SSW 8.1 mph - N/A   Clear
3:55 PM 77.0 °F - 48.2 °F 36% 29.79 in 10.0 mi South 10.4 mph - N/A   Clear
4:15 PM 77.0 °F - 48.2 °F 36% 29.78 in 10.0 mi SSW 9.2 mph - N/A   Clear
4:35 PM 77.0 °F - 48.2 °F 36% 29.78 in 10.0 mi South 8.1 mph - N/A   Clear
4:55 PM 75.2 °F - 48.2 °F 38% 29.78 in 10.0 mi SSW 9.2 mph - N/A   Clear
5:15 PM 75.2 °F - 48.2 °F 38% 29.78 in 10.0 mi South 9.2 mph - N/A   Clear
5:35 PM 75.2 °F - 48.2 °F 38% 29.78 in 10.0 mi South 9.2 mph - N/A   Clear
5:55 PM 73.4 °F - 48.2 °F 41% 29.78 in 10.0 mi South 8.1 mph - N/A   Clear
6:15 PM 71.6 °F - 48.2 °F 43% 29.78 in 10.0 mi South 4.6 mph - N/A   Clear
6:55 PM 68.0 °F - 48.2 °F 49% 29.78 in 10.0 mi SSE 4.6 mph - N/A   Clear
7:15 PM 64.4 °F - 48.2 °F 56% 29.78 in 10.0 mi South 6.9 mph - N/A   Clear
7:36 PM 64.4 °F - 46.4 °F 52% 29.79 in 10.0 mi SSE 5.8 mph - N/A   Clear
7:55 PM 64.4 °F - 46.4 °F 52% 29.79 in 10.0 mi SSE 6.9 mph - N/A   Clear
8:15 PM 64.4 °F - 46.4 °F 52% 29.80 in 10.0 mi SSE 6.9 mph - N/A   Clear
8:55 PM 60.8 °F - 46.4 °F 59% 29.81 in 10.0 mi SSE 5.8 mph - N/A   Clear
9:15 PM 60.8 °F - 46.4 °F 59% 29.81 in 10.0 mi SE 6.9 mph - N/A   Clear
9:35 PM 59.0 °F - 46.4 °F 63% 29.82 in 10.0 mi SE 6.9 mph - N/A   Clear
9:55 PM 60.8 °F - 46.4 °F 59% 29.82 in 10.0 mi SE 8.1 mph - N/A   Clear
10:15 PM 59.0 °F - 46.4 °F 63% 29.83 in 10.0 mi SE 6.9 mph - N/A   Clear
10:35 PM 59.0 °F - 46.4 °F 63% 29.83 in 10.0 mi SSE 5.8 mph - N/A   Clear
11:15 PM 59.0 °F - 46.4 °F 63% 29.83 in 10.0 mi SE 4.6 mph - N/A   Clear
11:35 PM 60.8 °F - 46.4 °F 59% 29.84 in 10.0 mi SE 4.6 mph - N/A   Clear
11:55 PM 59.0 °F - 46.4 °F 63% 29.83 in 10.0 mi SE 5.8 mph - N/A   Scattered Clouds